Location: McCall
(45.0000°N, 116.0000°W)
Time: 02:14:11
(UTC-06:00)

Amateur Radio Satellites - All Passes

Search period start: 24 March 2017 01:44
Search period end: 25 March 2017 01:44
Location: McCall, 45.0000°N, 116.0000°W

Satellite Date Start Highest point End Downlink Frequencies (MHz)
Time Altitude Azimuth
NANOSAT C BR1 24 Mar 01:46:24 01:50:41 87° 279° (W) 01:54:53 145.865
Oscar 19 24 Mar 01:48:37 01:49:54 11° 87° (E) 01:51:11 437.125/150
RS-15 24 Mar 01:49:00 01:57:20 22° 262° (W) 02:05:28 29.354- 29.394
EO-79 24 Mar 01:49:04 01:53:19 76° 285° (WNW) 01:57:32 145.935-145.965
50 SAT 24 Mar 01:58:39 02:01:43 30° 263° (W) 02:04:50 437.505
SPROUT 24 Mar 02:01:57 02:05:42 29° 265° (W) 02:09:28 437.525
BEESAT 24 Mar 02:03:45 02:05:07 11° 56° (NE) 02:06:29 436.000
POLYITAN 1 24 Mar 02:16:31 02:20:28 38° 290° (WNW) 02:24:23 437.675
ITUPSAT 1 24 Mar 02:16:34 02:19:09 15° 59° (ENE) 02:21:44 437.325
DX 1 24 Mar 02:17:43 02:21:46 38° 262° (W) 02:25:52 434.975-435.025
QB50P2 24 Mar 02:21:06 02:24:55 32° 291° (WNW) 02:28:41 145.880/145.840
BEESAT 3 24 Mar 02:28:09 02:30:20 14° 325° (NW) 02:32:31 437.485
VELOX 1 24 Mar 02:33:19 02:35:25 13° 271° (W) 02:37:31 145.980
BEESAT 2 24 Mar 02:35:44 02:38:52 22° 319° (NW) 02:42:04 435.950
DUCHIFAT 1 24 Mar 02:38:03 02:41:40 28° 293° (WNW) 02:45:16 145.980
ISS 24 Mar 02:38:34 02:41:22 25° 5° (N) 02:44:11 437.550
SO-50 24 Mar 02:41:42 02:44:32 17° 250° (WSW) 02:47:22 436.795
MOZHAYETS 4 24 Mar 02:46:55 02:48:11 11° 58° (ENE) 02:49:28
Tancredo 1 24 Mar 02:51:59 02:54:45 26° 9° (N) 02:57:31 437.200
UKube-1 24 Mar 03:05:10 03:08:09 18° 267° (W) 03:11:09 .
BUGSAT 1 24 Mar 03:05:55 03:09:51 38° 290° (WNW) 03:13:42 437.445
Gurwin Techsat 1B 24 Mar 03:15:46 03:20:49 41° 98° (E) 03:25:49 435.225
Oscar 19 24 Mar 03:24:47 03:29:59 85° 104° (ESE) 03:35:10 437.125/150
NANOSAT C BR1 24 Mar 03:25:32 03:25:40 10° 302° (WNW) 03:25:48 145.865
BEESAT 24 Mar 03:37:18 03:42:05 79° 72° (ENE) 03:46:52 436.000
O/OREOS (USA 219) 24 Mar 03:47:06 03:51:30 43° 60° (ENE) 03:55:54 437.305
ITUPSAT 1 24 Mar 03:51:33 03:56:21 78° 256° (WSW) 04:01:10 437.325
AO-7 24 Mar 04:03:43 04:09:47 22° 91° (E) 04:15:50 .
ISS 24 Mar 04:15:04 04:18:19 53° 23° (NNE) 04:21:34 437.550
MOZHAYETS 4 24 Mar 04:19:59 04:24:36 84° 76° (ENE) 04:29:14
KKS-1 24 Mar 04:23:19 04:26:51 23° 64° (ENE) 04:30:24 437.445
Tancredo 1 24 Mar 04:28:04 04:31:17 71° 28° (NNE) 04:34:29 437.200
Gurwin Techsat 1B 24 Mar 04:56:03 05:00:35 29° 296° (WNW) 05:05:06 435.225
CUBESAT XI-V 24 Mar 05:04:47 05:09:06 42° 70° (ENE) 05:13:26 437.345
ITAMSAT 1 24 Mar 05:05:24 05:10:37 70° 103° (ESE) 05:15:47 435.822/435.867
Oscar 19 24 Mar 05:05:45 05:08:36 15° 302° (WNW) 05:11:28 437.125/150
STARS 24 Mar 05:07:11 05:11:00 29° 67° (ENE) 05:14:49 437.465
BEESAT 24 Mar 05:18:28 05:20:26 12° 272° (W) 05:22:24 436.000
O/OREOS (USA 219) 24 Mar 05:27:05 05:30:38 22° 258° (WSW) 05:34:10 437.305
ISS 24 Mar 05:51:49 05:54:38 26° 222° (SW) 05:57:25 437.550
AO-7 24 Mar 05:55:10 06:03:30 85° 291° (WNW) 06:11:48 .
KKS-1 24 Mar 05:59:01 06:03:12 39° 262° (W) 06:07:25 437.445
MOZHAYETS 4 24 Mar 06:01:19 06:02:22 11° 273° (W) 06:03:24
Tancredo 1 24 Mar 06:04:54 06:07:08 17° 225° (SW) 06:09:21 437.200
M-CUBED/EXP-1 PRIME 24 Mar 06:24:38 06:28:07 43° 65° (ENE) 06:31:53 437.505
STRAND 1 24 Mar 06:29:42 06:31:27 12° 55° (NE) 06:33:12 437.568
CUTE-I 24 Mar 06:37:45 06:39:09 11° 86° (E) 06:40:32 437.470
AO-85 24 Mar 06:41:48 06:45:29 37° 48° (NE) 06:49:12 145.980
CUBESAT XI-V 24 Mar 06:43:08 06:46:39 21° 267° (W) 06:50:11 437.345
STARS 24 Mar 06:43:24 06:47:17 30° 264° (W) 06:51:12 437.465
ITAMSAT 1 24 Mar 06:46:05 06:49:32 18° 301° (WNW) 06:52:57 435.822/435.867
YUBILEINY 24 Mar 07:01:11 07:02:51 11° 70° (ENE) 07:04:30 435.215
XW-2D 24 Mar 07:08:22 07:11:09 19° 93° (E) 07:13:55 145.860 - 145.880
XW-2B 24 Mar 07:14:05 07:17:04 22° 94° (E) 07:20:00 145.730 - 145.750
NUDT-PHONESAT 24 Mar 07:17:54 07:20:37 19° 93° (E) 07:23:19 437.300
DOVE 4 24 Mar 07:20:29 07:25:34 44° 97° (E) 07:30:34 437.250
KAITUO 1B 24 Mar 07:21:31 07:24:25 21° 94° (E) 07:27:18 145.475/437.950
XW-2C 24 Mar 07:23:54 07:27:11 28° 96° (E) 07:30:28 145.795 - 145.815
BEESAT 3 24 Mar 07:26:33 07:29:09 16° 37° (NE) 07:31:45 437.485
BEESAT 2 24 Mar 07:36:54 07:38:09 11° 31° (NNE) 07:39:25 435.950
AO-7 24 Mar 07:49:08 07:55:11 23° 312° (NW) 08:01:13 .
M-CUBED/EXP-1 PRIME 24 Mar 08:00:40 08:02:53 15° 265° (W) 08:05:11 437.505
STRAND 1 24 Mar 08:04:36 08:09:44 75° 73° (ENE) 08:14:54 437.568
XW-2A 24 Mar 08:13:12 08:15:04 14° 92° (E) 08:16:57 145.665 - 145.685
LilacSat-2 24 Mar 08:13:59 08:17:45 66° 285° (WNW) 08:21:28 437.200
CUTE-I 24 Mar 08:14:37 08:20:01 82° 104° (ESE) 08:25:22 437.470
XW-2F 24 Mar 08:17:33 08:21:16 64° 285° (WNW) 08:24:57 145.980 - 146.000
CUTE 1.7 + AOD 2 24 Mar 08:17:53 08:20:30 16° 91° (E) 08:23:06 437.475
AO-85 24 Mar 08:22:34 08:25:40 22° 245° (WSW) 08:28:50 145.980
NO-84 24 Mar 08:32:07 08:34:27 23° 133° (SE) 08:36:47 435.350 FM
XW-2D 24 Mar 08:42:04 08:45:25 31° 290° (WNW) 08:48:45 145.860 - 145.880
XW-2B 24 Mar 08:48:01 08:51:16 28° 291° (WNW) 08:54:29 145.730 - 145.750
YUBILEINY 24 Mar 08:49:07 08:57:37 59° 91° (E) 09:06:06 435.215
HO-68 24 Mar 08:50:18 08:57:02 42° 98° (E) 09:03:44 435.675
NUDT-PHONESAT 24 Mar 08:51:21 08:54:37 30° 290° (WNW) 08:57:51 437.300
KAITUO 1B 24 Mar 08:55:17 08:58:27 27° 291° (WNW) 09:01:37 145.475/437.950
XW-2C 24 Mar 08:58:20 09:01:15 22° 293° (WNW) 09:04:10 145.795 - 145.815
DOVE 4 24 Mar 08:58:32 09:03:00 28° 295° (WNW) 09:07:26 437.250
BEESAT 3 24 Mar 09:03:13 09:07:15 78° 236° (WSW) 09:11:15 437.485
CUBEBUG 2 24 Mar 09:07:45 09:11:28 26° 93° (E) 09:15:05 437.445
BEESAT 2 24 Mar 09:12:48 09:16:50 56° 52° (NE) 09:20:48 435.950
Oscar 11 24 Mar 09:26:03 09:27:16 11° 88° (E) 09:28:28 .
ZACube-1 24 Mar 09:27:33 09:29:58 15° 90° (E) 09:32:20 437.345
FO-29 24 Mar 09:39:42 09:45:10 22° 56° (ENE) 09:50:24 435.910
AAUSAT CUBESAT 2 24 Mar 09:43:00 09:46:57 42° 98° (E) 09:50:54 437.432
XW-2A 24 Mar 09:44:52 09:48:00 35° 289° (WNW) 09:51:05 145.665 - 145.685
STRAND 1 24 Mar 09:46:37 09:49:28 15° 271° (W) 09:52:20 437.568
SEEDS 24 Mar 09:50:35 09:54:46 78° 285° (WNW) 09:58:57 437.485
CUTE 1.7 + AOD 2 24 Mar 09:52:32 09:56:37 49° 287° (WNW) 10:00:40 437.475
CUTE-I 24 Mar 09:56:09 09:59:23 16° 303° (WNW) 10:02:35 437.470
AO-73 24 Mar 09:56:36 10:00:14 27° 94° (E) 10:03:47 145.935
TIGRISAT 24 Mar 09:57:08 10:00:46 22° 64° (ENE) 10:04:22 435.000
PRISM 24 Mar 10:05:09 10:09:04 50° 72° (ENE) 10:13:02 437.425
UNISAT 6 24 Mar 10:06:02 10:10:02 29° 67° (ENE) 10:14:02 437.425
NO-84 24 Mar 10:09:12 10:11:51 34° 331° (NNW) 10:14:34 435.350 FM
UWE-3 24 Mar 10:15:35 10:19:59 82° 103° (ESE) 10:24:13 435.000/436.395/437.385
HO-68 24 Mar 10:38:06 10:44:45 43° 297° (WNW) 10:51:23 435.675
CUBEBUG 2 24 Mar 10:44:08 10:48:08 33° 292° (WNW) 10:52:01 437.445
YUBILEINY 24 Mar 10:47:07 10:54:52 34° 292° (WNW) 11:02:39 435.215
BEESAT 2 24 Mar 10:51:40 10:54:11 16° 249° (WSW) 10:56:41 435.950
Oscar 11 24 Mar 10:59:36 11:03:55 74° 285° (WNW) 11:08:11 .
ZACube-1 24 Mar 11:02:26 11:06:37 53° 288° (WNW) 11:10:41 437.345
NANOSAT C BR1 24 Mar 11:08:39 11:09:05 10° 58° (ENE) 11:09:29 145.865
EO-79 24 Mar 11:10:23 11:11:56 12° 59° (ENE) 11:13:28 145.935-145.965
PCSat 24 Mar 11:19:10 11:24:27 58° 116° (ESE) 11:29:48 145.827
AAUSAT CUBESAT 2 24 Mar 11:19:13 11:22:08 19° 295° (WNW) 11:25:02 437.432
FO-29 24 Mar 11:21:26 11:29:19 87° 75° (ENE) 11:36:45 435.910
DELFI C3 24 Mar 11:25:22 11:29:21 69° 101° (ESE) 11:33:19 145.870
TIGRISAT 24 Mar 11:32:39 11:37:10 45° 262° (W) 11:41:39 435.000
AO-73 24 Mar 11:32:47 11:36:27 29° 292° (WNW) 11:40:03 145.935
POLYITAN 1 24 Mar 11:35:47 11:38:59 21° 65° (ENE) 11:42:14 437.675
QB50P2 24 Mar 11:39:58 11:43:26 24° 66° (ENE) 11:46:55 145.880/145.840
PRISM 24 Mar 11:42:21 11:44:39 15° 269° (W) 11:46:59 437.425
UNISAT 6 24 Mar 11:42:21 11:46:38 34° 264° (W) 11:50:54 437.425
NO-84 24 Mar 11:48:33 11:50:07 13° 353° (N) 11:51:41 435.350 FM
UWE-3 24 Mar 11:54:15 11:55:44 12° 301° (WNW) 11:57:12 435.000/436.395/437.385
DUCHIFAT 1 24 Mar 11:55:54 11:59:30 27° 67° (ENE) 12:03:07 145.980
RS-15 24 Mar 11:56:49 12:00:46 12° 91° (E) 12:04:45 29.354- 29.394
AIST 2D 24 Mar 12:11:38 12:15:10 79° 76° (ENE) 12:18:43 435.315
LO-87 24 Mar 12:11:57 12:15:06 26° 96° (E) 12:18:13 145.935 - 145.965
BUGSAT 1 24 Mar 12:22:48 12:25:50 19° 64° (ENE) 12:28:53 437.445
NANOSAT C BR1 24 Mar 12:39:48 12:44:04 87° 79° (E) 12:48:22 145.865
EO-79 24 Mar 12:42:46 12:47:03 81° 257° (WSW) 12:51:22 145.935-145.965
VELOX 1 24 Mar 12:44:48 12:45:48 11° 88° (E) 12:46:49 145.980
ESTCUBE 1 24 Mar 12:55:16 12:59:35 44° 99° (E) 13:03:53 437.505/2401.250
DELFI C3 24 Mar 13:02:06 13:03:36 12° 299° (WNW) 13:05:05 145.870
Gurwin Techsat 1B 24 Mar 13:02:37 13:04:55 13° 55° (NE) 13:07:13 435.225
PCSat 24 Mar 13:03:36 13:08:12 27° 316° (NW) 13:12:50 145.827
Oscar 19 24 Mar 13:06:02 13:09:51 22° 61° (ENE) 13:13:40 437.125/150
FO-29 24 Mar 13:09:24 13:15:00 21° 271° (W) 13:20:27 435.910
POLYITAN 1 24 Mar 13:10:29 13:14:31 40° 262° (W) 13:18:36 437.675
QB50P2 24 Mar 13:15:11 13:19:04 34° 263° (W) 13:23:00 145.880/145.840
AO-7 24 Mar 13:20:00 13:21:33 11° 34° (NE) 13:23:06 .
50 SAT 24 Mar 13:21:43 13:23:38 14° 92° (E) 13:25:32 437.505
NO-84 24 Mar 13:26:37 13:28:39 16° 15° (NNE) 13:30:45 435.350 FM
DUCHIFAT 1 24 Mar 13:31:21 13:35:05 29° 264° (W) 13:38:51 145.980
SPROUT 24 Mar 13:45:03 13:49:07 40° 98° (E) 13:53:08 437.525
LO-87 24 Mar 13:45:33 13:48:26 22° 292° (WNW) 13:51:18 145.935 - 145.965
BUGSAT 1 24 Mar 13:56:51 14:00:53 43° 261° (W) 14:04:59 437.445
RS-15 24 Mar 13:58:41 14:10:15 58° 113° (ESE) 14:22:10 29.354- 29.394
DX 1 24 Mar 14:03:42 14:07:36 30° 96° (E) 14:11:27 434.975-435.025
VELOX 1 24 Mar 14:18:20 14:22:49 81° 287° (WNW) 14:27:17 145.980
ESTCUBE 1 24 Mar 14:32:43 14:36:06 21° 296° (WNW) 14:39:29 437.505/2401.250
Gurwin Techsat 1B 24 Mar 14:38:40 14:43:59 79° 74° (ENE) 14:49:20 435.225
Oscar 19 24 Mar 14:43:46 14:48:46 55° 259° (W) 14:53:49 437.125/150
ITAMSAT 1 24 Mar 14:47:52 14:51:33 20° 60° (ENE) 14:55:15 435.822/435.867
UKube-1 24 Mar 14:48:24 14:52:43 63° 102° (ESE) 14:57:01 .
50 SAT 24 Mar 14:53:35 14:56:52 38° 288° (WNW) 15:00:08 437.505
NO-84 24 Mar 15:03:34 15:06:42 57° 34° (NE) 15:10:05 435.350 FM
AO-7 24 Mar 15:04:30 15:12:00 39° 57° (ENE) 15:19:29 .
SO-50 24 Mar 15:18:46 15:20:38 12° 108° (ESE) 15:22:30 436.795
SPROUT 24 Mar 15:21:32 15:24:46 21° 295° (WNW) 15:27:59 437.525
BEESAT 24 Mar 15:36:30 15:39:37 17° 91° (E) 15:42:41 436.000
DX 1 24 Mar 15:39:56 15:43:43 29° 293° (WNW) 15:47:29 434.975-435.025
ITUPSAT 1 24 Mar 15:50:38 15:54:24 23° 94° (E) 15:58:08 437.325
VELOX 1 24 Mar 15:57:52 15:58:30 10° 303° (WNW) 15:59:08 145.980
RS-15 24 Mar 16:11:10 16:23:00 55° 319° (NW) 16:35:10 29.354- 29.394
MOZHAYETS 4 24 Mar 16:14:04 16:17:02 17° 91° (E) 16:19:59
Gurwin Techsat 1B 24 Mar 16:21:42 16:24:33 15° 271° (W) 16:27:26 435.225
ITAMSAT 1 24 Mar 16:25:21 16:30:31 64° 257° (WSW) 16:35:45 435.822/435.867
UKube-1 24 Mar 16:25:48 16:28:16 15° 299° (WNW) 16:30:42 .
NO-84 24 Mar 16:41:40 16:44:03 18° 229° (SW) 16:46:34 435.350 FM
SO-50 24 Mar 16:55:47 17:00:26 87° 306° (NW) 17:05:03 436.795
AO-7 24 Mar 16:56:23 17:04:30 55° 257° (WSW) 17:12:40 .
BEESAT 24 Mar 17:13:04 17:17:45 57° 288° (WNW) 17:22:24 436.000
ITUPSAT 1 24 Mar 17:27:54 17:32:24 43° 291° (WNW) 17:36:52 437.325
KKS-1 24 Mar 17:47:44 17:51:48 33° 97° (E) 17:55:50 437.445
MOZHAYETS 4 24 Mar 17:50:04 17:54:31 53° 288° (WNW) 17:58:56
XW-2D 24 Mar 17:52:22 17:54:25 14° 64° (ENE) 17:56:27 145.860 - 145.880
XW-2B 24 Mar 17:57:56 18:00:15 16° 65° (ENE) 18:02:35 145.730 - 145.750
CUTE-I 24 Mar 17:59:54 18:04:09 24° 62° (ENE) 18:08:25 437.470
NUDT-PHONESAT 24 Mar 18:00:10 18:02:01 13° 63° (ENE) 18:03:53 437.300
O/OREOS (USA 219) 24 Mar 18:01:32 18:05:35 33° 105° (ESE) 18:09:39 437.305
KAITUO 1B 24 Mar 18:04:16 18:06:26 15° 64° (ENE) 18:08:36 145.475/437.950
XW-2C 24 Mar 18:07:26 18:10:15 20° 66° (ENE) 18:13:04 145.795 - 145.815
PCSat 24 Mar 18:22:38 18:26:03 17° 35° (NE) 18:29:27 145.827
DOVE 4 24 Mar 18:27:34 18:32:03 49° 71° (ENE) 18:36:50 437.250
RS-15 24 Mar 18:28:38 18:39:08 31° 351° (N) 18:49:38 29.354- 29.394
STARS 24 Mar 18:30:05 18:34:18 41° 99° (E) 18:38:27 437.465
CUBESAT XI-V 24 Mar 18:36:01 18:40:41 81° 104° (ESE) 18:45:21 437.345
SO-50 24 Mar 18:38:28 18:41:34 17° 326° (NW) 18:44:39 436.795
YUBILEINY 24 Mar 18:56:56 19:04:32 32° 66° (ENE) 19:12:06 435.215
LilacSat-2 24 Mar 18:57:12 19:01:02 77° 74° (ENE) 19:04:52 437.200
XW-2F 24 Mar 18:59:50 19:03:37 77° 75° (ENE) 19:07:25 145.980 - 146.000
CUTE 1.7 + AOD 2 24 Mar 19:12:49 19:15:19 16° 63° (ENE) 19:17:49 437.475
HO-68 24 Mar 19:21:03 19:27:32 39° 62° (ENE) 19:34:01 435.675
KKS-1 24 Mar 19:24:28 19:28:15 27° 294° (WNW) 19:32:01 437.445
XW-2D 24 Mar 19:24:31 19:28:13 50° 260° (W) 19:31:56 145.860 - 145.880
XW-2B 24 Mar 19:30:28 19:34:07 43° 261° (W) 19:37:47 145.730 - 145.750
NUDT-PHONESAT 24 Mar 19:31:52 19:35:32 51° 260° (W) 19:39:13 437.300
M-CUBED/EXP-1 PRIME 24 Mar 19:35:05 19:39:04 28° 100° (E) 19:43:06 437.505
KAITUO 1B 24 Mar 19:36:29 19:40:06 45° 261° (W) 19:43:43 145.475/437.950
CUTE-I 24 Mar 19:38:37 19:43:51 52° 260° (W) 19:49:07 437.470
XW-2C 24 Mar 19:40:48 19:44:15 33° 263° (W) 19:47:44 145.795 - 145.815
O/OREOS (USA 219) 24 Mar 19:41:01 19:44:59 29° 304° (NW) 19:49:00 437.305
UWE-3 24 Mar 19:41:15 19:42:30 11° 58° (ENE) 19:43:46 435.000/436.395/437.385
PCSat 24 Mar 20:05:01 20:10:28 70° 56° (NE) 20:15:52 145.827
DOVE 4 24 Mar 20:06:38 20:10:04 20° 270° (W) 20:13:39 437.250
STARS 24 Mar 20:06:58 20:10:23 22° 296° (WNW) 20:13:47 437.465
CUBEBUG 2 24 Mar 20:07:03 20:11:09 30° 67° (ENE) 20:15:15 437.445
STRAND 1 24 Mar 20:13:53 20:17:47 22° 92° (E) 20:21:39 437.568
CUBESAT XI-V 24 Mar 20:15:14 20:17:25 13° 301° (WNW) 20:19:36 437.345
XW-2A 24 Mar 20:17:22 20:20:50 83° 257° (WSW) 20:24:18 145.665 - 145.685
Oscar 11 24 Mar 20:22:49 20:24:34 12° 60° (ENE) 20:26:20 .
ZACube-1 24 Mar 20:24:56 20:27:55 17° 63° (ENE) 20:30:52 437.345
AAUSAT CUBESAT 2 24 Mar 20:34:51 20:38:35 35° 70° (ENE) 20:42:20 437.432
SEEDS 24 Mar 20:43:40 20:47:49 90° 277° (W) 20:52:00 437.485
RS-15 24 Mar 20:45:02 20:56:19 38° 25° (NNE) 21:07:16 29.354- 29.394
CUTE 1.7 + AOD 2 24 Mar 20:46:35 20:50:43 55° 260° (W) 20:54:52 437.475
YUBILEINY 24 Mar 20:53:22 21:01:55 63° 268° (W) 21:10:26 435.215
AO-73 24 Mar 20:53:29 20:57:24 29° 68° (ENE) 21:01:15 145.935
HO-68 24 Mar 21:08:19 21:15:08 46° 261° (W) 21:21:59 435.675
M-CUBED/EXP-1 PRIME 24 Mar 21:09:18 21:13:30 37° 297° (WNW) 21:17:47 437.505
UWE-3 24 Mar 21:13:32 21:18:13 82° 73° (ENE) 21:22:51 435.000/436.395/437.385
CUBEBUG 2 24 Mar 21:43:22 21:47:40 34° 264° (W) 21:51:59 437.445
PCSat 24 Mar 21:49:37 21:53:16 19° 255° (WSW) 21:56:55 145.827
STRAND 1 24 Mar 21:52:17 21:57:15 51° 290° (WNW) 22:02:09 437.568
Oscar 11 24 Mar 21:55:47 22:00:05 77° 257° (WSW) 22:04:26 .
ZACube-1 24 Mar 21:59:17 22:03:46 57° 260° (W) 22:08:14 437.345
AAUSAT CUBESAT 2 24 Mar 22:11:02 22:14:09 21° 267° (W) 22:17:17 437.432
DELFI C3 24 Mar 22:12:27 22:16:13 48° 73° (ENE) 22:20:01 145.870
AO-73 24 Mar 22:29:31 22:33:33 31° 264° (W) 22:37:33 145.935
ISS 24 Mar 22:32:26 22:35:23 32° 140° (SE) 22:38:22 437.550
AO-85 24 Mar 22:37:34 22:41:56 63° 122° (ESE) 22:46:02 145.980
Tancredo 1 24 Mar 22:41:33 22:44:34 42° 143° (SE) 22:47:36 437.200
LO-87 24 Mar 22:50:47 22:53:00 16° 65° (ENE) 22:55:15 145.935 - 145.965
UWE-3 24 Mar 22:53:42 22:55:12 11° 273° (W) 22:56:43 435.000/436.395/437.385
YUBILEINY 24 Mar 22:54:08 22:56:47 12° 290° (WNW) 22:59:26 435.215
RS-15 24 Mar 22:58:24 23:10:50 84° 54° (NE) 23:22:42 29.354- 29.394
PRISM 24 Mar 23:19:22 23:23:31 63° 103° (ESE) 23:27:38 437.425
TIGRISAT 24 Mar 23:22:23 23:26:24 32° 96° (E) 23:30:18 435.000
UNISAT 6 24 Mar 23:31:47 23:36:03 43° 98° (E) 23:40:12 437.425
VELOX 1 24 Mar 23:43:28 23:45:38 14° 60° (ENE) 23:47:48 145.980
SO-50 24 Mar 23:45:27 23:49:07 24° 39° (NE) 23:52:45 436.795
DELFI C3 24 Mar 23:49:13 23:51:18 14° 269° (W) 23:53:24 145.870
ESTCUBE 1 24 Mar 23:56:23 00:00:43 50° 71° (ENE) 00:05:04 437.505/2401.250
ISS 25 Mar 00:08:37 00:11:48 45° 339° (NNW) 00:14:59 437.550
FO-29 25 Mar 00:15:22 00:21:33 64° 101° (E) 00:27:01 435.910
Tancredo 1 25 Mar 00:17:46 00:20:45 37° 341° (NNW) 00:23:47 437.200
AO-85 25 Mar 00:19:33 00:22:40 19° 320° (NW) 00:25:40 145.980
LO-87 25 Mar 00:22:48 00:26:09 38° 262° (W) 00:29:34 145.935 - 145.965
NANOSAT C BR1 25 Mar 00:24:08 00:25:47 12° 89° (E) 00:27:25 145.865
EO-79 25 Mar 00:26:54 00:29:12 14° 90° (E) 00:31:30 145.935-145.965
BEESAT 3 25 Mar 00:31:43 00:35:39 84° 307° (NW) 00:39:39 437.485
SPROUT 25 Mar 00:40:00 00:44:00 39° 70° (ENE) 00:48:02 437.525
BEESAT 2 25 Mar 00:43:07 00:46:57 52° 120° (ESE) 00:50:52 435.950
POLYITAN 1 25 Mar 00:53:24 00:57:03 27° 95° (E) 01:00:38 437.675
PRISM 25 Mar 00:56:09 00:58:18 14° 299° (WNW) 01:00:27 437.425
QB50P2 25 Mar 00:57:47 01:01:38 32° 96° (E) 01:05:26 145.880/145.840
TIGRISAT 25 Mar 00:59:14 01:02:58 26° 294° (WNW) 01:06:36 435.000
DX 1 25 Mar 01:00:55 01:04:49 33° 68° (ENE) 01:08:45 434.975-435.025
AIST 2D 25 Mar 01:08:00 01:11:30 74° 102° (ESE) 01:14:58 435.315
UNISAT 6 25 Mar 01:09:09 01:12:27 21° 296° (WNW) 01:15:41 437.425
RS-15 25 Mar 01:12:07 01:21:55 30° 258° (WSW) 01:31:24 29.354- 29.394
DUCHIFAT 1 25 Mar 01:12:51 01:16:46 36° 97° (E) 01:20:38 145.980
VELOX 1 25 Mar 01:17:06 01:21:30 73° 257° (WSW) 01:25:57 145.980
SO-50 25 Mar 01:25:28 01:29:53 56° 239° (WSW) 01:34:17 436.795
50 SAT 25 Mar 01:28:25 01:31:52 78° 259° (W) 01:35:20 437.505
ESTCUBE 1 25 Mar 01:34:51 01:37:48 17° 269° (W) 01:40:48 437.505/2401.250
BUGSAT 1 25 Mar 01:36:59 01:40:20 23° 94° (E) 01:43:37 437.445
